Change the Weather History Date:

Friday, October 11, 2013

  Actual Average Record
Temperature  
Mean Temperature 46 °F -  
Max Temperature 48 °F 43 °F 53 °F (1986)
Min Temperature 43 °F 32 °F 18 °F (1961)
Degree Days  
Heating Degree Days 20    
Moisture  
Dew Point 43 °F    
Average Humidity 90    
Maximum Humidity 100    
Minimum Humidity 73    
Precipitation  
Precipitation 0.08 in - - ()
Sea Level Pressure  
Sea Level Pressure 29.72 in    
Wind  
Wind Speed 9 mph (ESE)    
Max Wind Speed 28 mph    
Max Gust Speed 34 mph    
Visibility 10 miles    
Events Rain    
Averages and records for this station are not official NWS values.
T = Trace of Precipitation, MM = Missing Value Source: NWS Daily Summary

Daily Weather History Graph

Daily Weather History Graph

Search for Another Location

Airport or City:

Trip Planner

Search our weather history database for the weather conditions in past years. The results will help you decide how hot, cold, wet, or windy it might be!

Date:

Astronomy

Oct. 11, 2013 Rise Set
Actual Time 8:49 AM AKDT 7:21 PM AKDT
Civil Twilight 8:08 AM AKDT 8:02 PM AKDT
Nautical Twilight 7:20 AM AKDT 8:50 PM AKDT
Astronomical Twilight 6:31 AM AKDT 9:38 PM AKDT
Moon 4:26 PM AKDT (10/11) No Moon Set
Length of Visible Light 11h 54m
Length of Day
10h 31m
Waxing Crescent, 49% of the Moon is Illuminated
Oct 11
Waxing Crescent
Oct 11
First Quarter
Oct 18
Full
Oct 26
Last Quarter
Nov 3
New

Hourly Weather History & Observations

Time (AKDT) Temp. Windchill Dew Point Humidity Pressure Visibility Wind Dir Wind Speed Gust Speed Precip Events Conditions
12:11 AM 44.6 °F 40.7 °F 44.6 °F 100% 29.66 in 10.0 mi South 6.9 mph - 0.00 in Rain Light Rain
12:20 AM 44.6 °F 41.4 °F 44.6 °F 100% 29.66 in 10.0 mi South 5.8 mph - 0.00 in   Overcast
12:25 AM 44.6 °F 42.2 °F 44.6 °F 100% 29.67 in 10.0 mi South 4.6 mph - 0.00 in   Overcast
12:53 AM 44.1 °F 41.5 °F 43.0 °F 96% 29.68 in 10.0 mi South 4.6 mph - 0.00 in Rain Light Rain
1:18 AM 44.6 °F 42.2 °F 42.8 °F 93% 29.68 in 10.0 mi South 4.6 mph - 0.01 in Rain Light Rain
1:53 AM 44.1 °F 40.1 °F 43.0 °F 96% 29.69 in 10.0 mi SSE 6.9 mph - 0.01 in   Overcast
2:53 AM 44.1 °F 41.5 °F 43.0 °F 96% 29.71 in 10.0 mi ESE 4.6 mph - 0.00 in   Overcast
3:08 AM 44.6 °F 42.2 °F 42.8 °F 93% 29.70 in 10.0 mi SE 4.6 mph - N/A   Overcast
3:31 AM 44.6 °F 40.7 °F 42.8 °F 93% 29.71 in 10.0 mi SE 6.9 mph - N/A   Overcast
3:53 AM 44.1 °F 40.8 °F 43.0 °F 96% 29.72 in 10.0 mi SE 5.8 mph - N/A   Overcast
4:53 AM 44.1 °F 40.1 °F 43.0 °F 96% 29.73 in 10.0 mi East 6.9 mph - N/A   Overcast
5:42 AM 42.8 °F 38.0 °F 42.8 °F 100% 29.74 in 10.0 mi East 8.1 mph - N/A   Overcast
5:53 AM 43.0 °F 39.5 °F 43.0 °F 100% 29.75 in 10.0 mi ESE 5.8 mph - 0.00 in Rain Light Rain
6:05 AM 44.6 °F 40.7 °F 42.8 °F 93% 29.74 in 8.0 mi ESE 6.9 mph - 0.00 in Rain Rain
6:12 AM 44.6 °F 41.4 °F 42.8 °F 93% 29.74 in 9.0 mi Variable 5.8 mph - 0.01 in Rain Light Rain
6:53 AM 44.1 °F 39.0 °F 43.0 °F 96% 29.76 in 4.0 mi ESE 9.2 mph - 0.04 in Rain Light Rain
7:53 AM 43.0 °F 38.8 °F 43.0 °F 100% 29.76 in 10.0 mi East 6.9 mph - 0.01 in Rain Light Rain
8:53 AM 43.0 °F 38.2 °F 42.1 °F 97% 29.77 in 10.0 mi East 8.1 mph - 0.00 in   Overcast
9:19 AM 42.8 °F 38.6 °F 42.8 °F 100% 29.76 in 10.0 mi East 6.9 mph - 0.00 in Rain Light Rain
9:53 AM 44.1 °F 40.8 °F 42.1 °F 93% 29.78 in 10.0 mi East 5.8 mph - 0.01 in Rain Light Rain
10:53 AM 44.1 °F 40.1 °F 42.1 °F 93% 29.80 in 10.0 mi ESE 6.9 mph - 0.00 in   Overcast
11:53 AM 45.0 °F 41.8 °F 43.0 °F 93% 29.81 in 10.0 mi East 5.8 mph - 0.00 in   Mostly Cloudy
12:53 PM 46.0 °F 43.9 °F 42.1 °F 86% 29.80 in 10.0 mi East 4.6 mph - N/A   Overcast
1:53 PM 46.9 °F - 42.1 °F 83% 29.78 in 10.0 mi East 10.4 mph - N/A   Scattered Clouds
2:53 PM 48.0 °F - 42.1 °F 80% 29.76 in 10.0 mi East 13.8 mph - N/A   Mostly Cloudy
3:53 PM 48.0 °F - 42.1 °F 80% 29.74 in 10.0 mi East 18.4 mph 24.2 mph N/A   Scattered Clouds
4:53 PM 48.0 °F - 41.0 °F 77% 29.72 in 10.0 mi East 16.1 mph 25.3 mph N/A   Overcast
5:53 PM 46.9 °F - 42.1 °F 83% 29.70 in 10.0 mi East 17.3 mph 25.3 mph N/A   Overcast
6:53 PM 48.0 °F - 41.0 °F 77% 29.68 in 10.0 mi East 18.4 mph 29.9 mph N/A   Overcast
7:53 PM 48.9 °F - 41.0 °F 74% 29.68 in 10.0 mi ESE 20.7 mph 28.8 mph N/A   Overcast
8:53 PM 48.0 °F - 43.0 °F 83% 29.66 in 10.0 mi East 17.3 mph 31.1 mph 0.00 in Rain Light Rain
9:53 PM 46.9 °F - 44.1 °F 90% 29.64 in 8.0 mi ESE 17.3 mph 28.8 mph 0.04 in Rain Rain
10:13 PM 46.4 °F 37.5 °F 42.8 °F 87% 29.63 in 6.0 mi ESE 27.6 mph 34.5 mph 0.06 in Rain Heavy Rain
10:53 PM 46.9 °F - 42.1 °F 83% 29.63 in 10.0 mi ESE 20.7 mph 29.9 mph 0.09 in Rain Light Rain
11:53 PM 48.0 °F - 41.0 °F 77% 29.60 in 10.0 mi East 25.3 mph 33.4 mph 0.00 in   Overcast